My Profile
  1. Member Settings
  2. My Devices
  3. Sign Out
        More Settings
      Elev 571 ft, 34.153 °N 118.344 °W

      Burbank, CA

      Bob Hope Airport Station64°

      Daily Observations

      DateTemp High/LowDew Pt High/LowHumidityWindMax WindWind GustPressurePrecip.Condition
      10/31/2023 83 °F / 49 °F 25 °F / 15 °F 19 % 8 mph - 29.22 in 0 in
      10/30/2023 80 °F / 46 °F 26 °F / 8 °F 19 % 5 mph - 29.23 in 0 in
      10/29/2023 78 °F / 52 °F 45 °F / -2 °F 17 % 30 mph - 29.2 in 0 in
      10/28/2023 74 °F / 50 °F 53 °F / 43 °F 64 % 10 mph - 29.14 in 0 in
      10/27/2023 73 °F / 54 °F 53 °F / 49 °F 71 % 10 mph - 29.17 in 0 in
      10/26/2023 73 °F / 58 °F 57 °F / 46 °F 69 % 9 mph - 29.17 in 0 in
      10/25/2023 69 °F / 61 °F 59 °F / 55 °F 81 % 9 mph - 29.16 in 0 in
      10/24/2023 74 °F / 56 °F 59 °F / 52 °F 80 % 9 mph - 29.02 in 0 in
      10/23/2023 73 °F / 61 °F 57 °F / 53 °F 73 % 10 mph - 28.95 in 0 in
      10/22/2023 75 °F / 57 °F 59 °F / 51 °F 73 % 12 mph - 28.98 in 0 in
      10/21/2023 87 °F / 63 °F 56 °F / 44 °F 48 % 10 mph - 29.01 in 0 in
      10/20/2023 95 °F / 65 °F 58 °F / 31 °F 34 % 10 mph - 29.06 in 0 in
      10/19/2023 93 °F / 62 °F 61 °F / 48 °F 50 % 8 mph - 29.11 in 0 in
      10/18/2023 93 °F / 59 °F 61 °F / 45 °F 57 % 12 mph - 29.08 in 0 in
      10/17/2023 85 °F / 59 °F 60 °F / 46 °F 55 % 7 mph - 29.07 in 0 in
      10/16/2023 90 °F / 59 °F 55 °F / 40 °F 41 % 9 mph - 29.15 in 0 in
      10/15/2023 93 °F / 57 °F 47 °F / 31 °F 36 % 10 mph - 29.19 in 0 in
      10/14/2023 83 °F / 56 °F 57 °F / 39 °F 49 % 10 mph - 29.19 in 0 in
      10/13/2023 82 °F / 57 °F 59 °F / 40 °F 57 % 12 mph - 29.07 in 0 in
      10/12/2023 81 °F / 55 °F 56 °F / 44 °F 57 % 10 mph - 28.94 in 0 in
      10/11/2023 77 °F / 61 °F 59 °F / 34 °F 59 % 15 mph - 28.87 in 0 in
      10/10/2023 75 °F / 59 °F 59 °F / 55 °F 79 % 10 mph - 28.96 in 0 in
      10/9/2023 83 °F / 59 °F 61 °F / 56 °F 76 % 12 mph - 29.02 in 0 in
      10/8/2023 91 °F / 65 °F 61 °F / 50 °F 53 % 9 mph - 29.05 in 0 in
      10/7/2023 95 °F / 65 °F 58 °F / 42 °F 39 % 8 mph - 29.05 in 0 in
      10/6/2023 97 °F / 64 °F 51 °F / 41 °F 31 % 9 mph - 29.07 in 0 in
      10/5/2023 96 °F / 63 °F 53 °F / 38 °F 34 % 12 mph - 29.12 in 0 in
      10/4/2023 90 °F / 59 °F 53 °F / 43 °F 41 % 10 mph - 29.08 in 0 in
      10/3/2023 83 °F / 56 °F 56 °F / 44 °F 55 % 13 mph - 29.11 in 0 in
      10/2/2023 72 °F / 52 °F 57 °F / 46 °F 68 % 9 mph - 29.14 in 0 in
      10/1/2023 68 °F / 56 °F 51 °F / 44 °F 65 % 13 mph - 29.06 in 0 in

      Charts

      Temperature
      Precipitation
      Wind
      essentialaccessibility.com
      We recognize our responsibility to use data and technology for good. We may use or share your data with our data vendors. Take control of your data.
      Glossary